Wetbulb
58.68 58.90 58.74 58.74 58.91 59.08 59.23 59.28 59.29 59.54 59.92 60.35 60.82 61.19 61.29 60.99 60.35 58.87 53.91 56.74 58.60 62.48 59.89 54.42 53.62 53.63 53.91 51.88 50.76 49.23 48.06 45.42 45.93 44.80 47.10 47.81 47.93 47.93 49.57 49.90 51.22 53.16 51.80 54.12 61.31
58.30 58.33 58.53 58.37 58.51 58.81 59.08 59.14 59.13 59.23 59.57 59.88 60.42 60.98 61.05 60.71 56.88 54.11 59.36 62.44 62.58 61.83 53.57 52.60 51.38 52.16 51.26 50.25 50.51 49.68 47.63 46.73 47.55 48.27 47.47 47.76 48.57 49.07 48.65 48.95 49.73 50.47 52.04 52.45 59.21
58.02 58.05 57.90 57.82 57.93 58.48 58.78 58.97 59.15 59.18 59.43 59.62 60.13 60.92 60.87 59.61 53.35 52.35 61.47 62.33 61.37 59.60 54.75 53.60 52.83 51.74 49.36 50.22 48.79 46.80 46.43 45.15 46.18 47.09 48.00 47.83 47.07 49.09 48.47 47.60 50.91 51.15 52.72 52.35 58.56
57.98 57.74 57.59 57.42 57.52 57.92 58.53 58.72 58.95 59.09 59.28 59.48 60.11 60.85 59.90 56.31 42.97 53.93 60.84 61.57 61.07 56.42 54.08 52.40 51.91 50.02 48.22 47.01 48.38 45.03 45.61 45.82 47.24 48.40 47.43 46.80 48.07 47.40 48.54 50.99 50.75 52.69 52.94 53.16 56.31
58.27 57.74 57.31 57.26 57.37 57.70 58.09 58.49 58.77 58.93 58.98 59.23 60.29 60.49 56.37 49.35 49.60 56.28 59.33 59.06 55.23 53.86 52.27 51.31 50.27 49.67 46.68 47.70 47.37 45.98 46.18 45.86 47.38 47.22 47.47 47.29 47.44 48.11 47.79 51.27 50.40 50.04 49.56 52.09 54.64
58.01 57.60 57.38 57.21 57.23 57.65 57.90 58.18 58.49 58.65 58.73 59.07 60.16 59.60 52.52 44.51 55.44 56.13 54.38 53.53 53.33 52.75 51.49 51.90 50.97 50.76 48.27 47.28 46.55 47.24 46.79 47.05 47.50 47.66 47.45 46.52 46.88 47.07 49.71 50.76 49.49 48.90 50.53 51.55 53.22
57.70 57.25 56.84 56.86 56.74 57.08 57.79 57.90 58.08 58.22 58.45 58.98 59.81 56.22 49.77 47.59 56.57 56.14 53.58 52.89 53.07 52.52 51.54 51.83 52.00 50.71 49.46 46.90 47.73 46.71 45.33 46.87 47.21 47.15 47.32 47.58 45.80 45.71 50.45 48.26 49.05 49.67 50.58 50.81 51.79
57.72 56.98 56.69 56.64 56.70 56.74 57.11 57.65 57.88 57.81 58.32 59.05 59.84 54.03 46.93 53.21 57.23 53.50 53.68 52.67 53.45 53.62 53.00 52.49 53.21 50.80 49.30 48.72 47.24 45.22 45.56 42.71 45.07 45.56 46.49 47.04 43.53 48.34 47.97 48.49 49.05 50.41 51.16 50.79 50.92
57.57 57.02 56.88 56.80 56.78 56.86 57.04 57.44 57.56 57.76 58.49 59.27 54.62 51.48 45.33 56.34 53.06 54.60 53.76 51.76 52.24 52.23 52.34 51.62 51.83 48.48 48.30 46.20 44.18 44.02 41.00 41.14 43.25 45.76 45.08 45.66 44.65 48.24 47.37 46.68 48.37 50.20 50.48 50.46 50.82
58.24 57.55 57.29 57.28 57.08 57.02 57.30 57.70 57.93 57.50 56.70 55.05 53.58 46.24 47.69 46.70 52.72 52.70 52.93 52.29 50.70 50.78 50.38 50.09 49.05 47.02 46.19 44.73 38.22 40.46 40.15 40.29 41.46 43.39 43.33 44.08 44.02 47.86 48.85 46.93 48.38 49.96 50.75 50.80 50.21
58.45 58.13 58.00 57.76 57.68 57.56 56.56 52.54 48.70 46.68 50.65 45.63 44.89 43.61 46.04 50.27 52.97 51.28 51.52 50.60 50.34 49.09 45.64 45.49 44.70 42.32 44.70 45.75 42.56 41.48 40.82 40.38 42.92 42.93 42.75 43.62 44.06 46.08 48.43 48.22 47.85 49.14 50.02 50.44 51.08
57.74 58.52 58.69 58.00 58.14 57.54 56.26 48.93 47.08 50.16 44.45 48.25 46.73 46.89 49.34 51.19 47.16 49.59 51.08 48.55 47.45 44.37 44.41 43.48 41.04 45.56 43.74 43.68 42.39 41.40 40.82 40.75 43.21 42.01 42.03 43.27 42.68 45.94 47.32 47.65 48.67 49.13 49.89 50.66 51.53
55.02 56.31 58.20 58.39 57.88 56.46 54.69 53.39 54.78 52.17 45.95 46.74 47.35 46.51 46.65 49.75 46.74 47.92 49.27 46.79 44.63 41.68 42.93 41.65 43.00 44.68 42.45 40.70 40.31 41.26 40.42 40.62 39.95 41.36 41.68 40.61 40.68 43.53 46.32 46.40 47.54 48.56 49.61 50.27 50.88
53.34 53.72 54.67 57.88 54.58 55.17 53.32 56.85 55.95 52.77 43.90 44.34 44.54 47.60 46.65 48.63 43.78 49.24 50.50 48.06 43.40 41.97 42.03 42.58 44.20 41.66 40.33 39.77 41.42 38.22 42.26 41.40 39.77 39.02 36.78 40.23 34.71 41.73 44.44 44.92 45.95 47.63 49.27 49.84 50.81
51.91 51.40 52.09 57.26 55.05 53.22 54.18 56.41 56.45 53.55 30.74 44.68 43.00 49.50 45.89 44.05 44.66 44.59 48.19 46.77 42.77 41.48 42.26 40.46 39.48 39.54 39.49 40.77 42.26 40.39 41.40 40.64 39.57 39.17 37.04 39.05 35.07 40.58 41.06 42.12 44.99 47.83 50.18 50.93 51.17
51.87 51.80 51.24 53.45 54.42 52.53 55.88 55.47 53.73 39.96 30.01 40.02 43.46 42.31 40.98 42.34 42.04 44.19 45.27 47.18 45.70 41.91 41.03 40.59 42.21 42.60 42.58 40.32 42.32 41.29 40.25 38.77 38.33 38.17 32.92 38.57 36.92 39.10 41.52 43.20 45.55 47.15 48.58 47.56 48.29
51.93 51.56 50.02 50.22 49.91 51.91 53.39 52.06 36.21 31.35 42.95 38.47 39.47 41.01 40.44 39.01 39.46 41.35 40.78 40.39 39.57 36.00 36.50 38.31 39.64 41.57 41.97 39.25 40.55 40.86 39.37 32.89 31.19 30.35 31.49 36.45 35.47 39.58 43.46 44.21 46.27 47.72 49.49 47.00 47.40
51.05 49.77 49.14 49.14 52.30 50.30 50.38 44.21 30.87 36.75 38.92 41.59 40.42 39.51 38.65 39.54 39.13 39.09 38.79 37.50 41.00 38.78 37.07 35.06 33.13 39.32 42.22 42.31 39.85 38.47 39.75 34.93 29.48 29.50 33.65 32.56 31.41 39.51 44.93 46.18 46.73 47.27 47.40 46.48 46.37
48.91 47.85 47.01 48.73 51.25 51.31 45.13 32.96 35.43 37.79 41.28 39.62 40.38 38.04 37.55 38.58 38.77 38.30 38.66 39.30 41.52 40.39 35.96 34.60 34.47 38.98 39.34 42.19 43.18 37.52 34.82 40.95 35.30 27.23 30.31 35.73 40.02 43.92 43.81 44.18 44.98 44.97 46.38 46.59 47.18
46.33 44.08 43.34 48.06 51.96 48.81 40.59 34.45 36.47 41.47 43.03 42.16 38.37 40.62 36.37 37.46 37.07 37.05 36.90 41.09 40.14 41.95 44.00 39.45 33.78 36.85 37.97 41.29 40.30 39.77 41.86 33.93 34.49 29.20 27.76 33.66 34.99 37.63 41.91 43.27 44.99 45.09 44.88 47.23 47.78
44.22 37.90 43.55 48.10 50.44 43.21 33.68 35.73 39.17 43.90 44.56 40.91 39.21 38.93 40.03 37.68 38.88 36.13 37.94 39.85 40.82 40.32 43.04 41.94 37.66 34.72 37.57 37.02 37.76 37.45 36.48 36.21 37.31 35.03 31.77 30.53 36.21 44.45 44.67 44.69 44.74 45.78 45.58 46.20 46.37
41.16 32.37 44.28 50.10 37.81 38.71 34.82 36.20 41.17 41.24 44.50 43.24 42.77 39.96 38.50 39.57 37.68 37.71 38.77 41.53 42.05 41.44 37.30 41.22 38.41 34.51 35.78 38.49 39.03 40.39 39.22 38.63 33.61 30.35 33.22 31.95 35.37 42.04 43.86 43.18 43.72 44.43 44.77 45.44 45.06
36.85 35.97 43.27 46.34 30.57 32.20 35.52 35.65 39.27 40.18 41.12 41.36 40.71 41.82 42.62 38.48 35.81 37.35 38.85 42.59 41.72 40.61 38.44 40.12 35.90 31.87 33.89 35.72 36.55 35.22 37.26 39.24 39.34 35.96 33.76 32.18 35.35 40.32 41.55 43.49 43.99 45.07 45.94 45.43 44.53
37.31 30.60 36.17 38.78 37.60 33.50 31.88 33.01 33.64 39.60 39.07 41.38 40.72 42.80 40.47 38.83 39.42 36.67 37.32 41.41 42.33 40.91 42.54 42.38 36.67 34.99 33.45 36.41 38.40 33.77 36.33 37.59 37.16 32.66 33.54 34.87 37.72 43.42 42.12 43.72 44.69 45.94 46.42 46.87 46.26
37.43 32.62 34.86 28.42 31.25 33.37 34.56 33.39 31.42 31.53 38.30 39.28 36.65 37.44 37.17 34.21 35.71 36.29 39.12 40.75 42.23 43.27 41.45 38.63 31.87 34.99 37.32 38.74 36.44 35.57 36.77 36.63 35.55 37.39 33.84 37.46 38.67 42.14 44.15 44.11 46.14 47.81 47.59 46.09 45.57
35.12 34.28 34.90 32.75 32.26 31.14 32.33 30.71 31.83 33.18 34.57 34.21 34.08 36.05 37.15 34.24 35.70 33.60 37.29 38.55 38.41 41.13 39.94 39.38 32.25 33.05 31.75 36.78 36.53 34.46 36.98 36.84 37.24 38.15 38.50 39.15 38.75 45.28 46.54 46.26 44.49 46.23 46.87 46.20 47.09
39.87 39.03 35.87 32.30 31.86 29.93 29.08 29.93 29.71 33.51 34.61 36.04 36.74 35.15 34.27 36.39 38.41 38.21 39.70 40.38 40.22 38.49 37.61 36.22 33.72 32.41 28.70 34.74 35.29 30.86 35.58 37.97 37.91 39.39 39.13 35.66 40.78 44.72 44.10 44.32 45.13 45.99 46.91 46.44 46.80
MSLP
1019.03 1018.98 1019.19 1019.23 1019.21 1019.22 1019.12 1018.92 1018.83 1018.63 1018.52 1018.41 1018.16 1017.96 1017.82 1017.50 1017.14 1016.90 1016.33 1016.22 1016.10 1016.17 1016.43 1016.13 1016.06 1016.02 1016.06 1016.14 1016.37 1016.19 1015.10 1014.60 1014.68 1015.16 1015.01 1016.01 1016.11 1016.69 1017.02 1016.88 1017.27 1017.36 1017.38 1018.02 1018.21
1019.07 1019.12 1019.04 1019.27 1019.26 1019.26 1019.18 1019.03 1018.92 1018.66 1018.56 1018.42 1018.12 1017.86 1017.73 1017.34 1017.06 1016.51 1016.29 1016.10 1016.13 1016.24 1016.19 1015.87 1015.65 1015.82 1015.81 1016.14 1016.33 1015.70 1015.32 1014.90 1015.15 1015.21 1015.36 1015.91 1016.10 1016.16 1016.70 1016.60 1016.77 1017.09 1017.64 1018.42 1018.76
1019.21 1019.28 1019.27 1019.29 1019.39 1019.33 1019.24 1019.11 1018.96 1018.80 1018.63 1018.48 1018.09 1017.82 1017.44 1017.14 1016.96 1016.09 1016.09 1016.13 1016.13 1016.15 1016.01 1015.84 1015.67 1015.73 1015.78 1016.06 1016.26 1016.10 1015.51 1015.69 1015.69 1016.01 1016.19 1016.16 1016.34 1016.36 1016.15 1015.91 1015.39 1015.57 1016.34 1017.76 1018.29
1019.11 1019.22 1019.29 1019.34 1019.39 1019.34 1019.34 1019.24 1019.02 1018.87 1018.66 1018.43 1017.95 1017.65 1017.19 1016.98 1016.97 1016.28 1016.31 1016.21 1016.22 1016.12 1015.97 1015.78 1015.66 1015.65 1015.74 1015.85 1016.30 1016.13 1016.20 1016.23 1016.34 1016.62 1016.75 1016.56 1016.44 1016.10 1015.92 1014.80 1015.44 1015.58 1016.02 1017.02 1017.51
1019.20 1019.28 1019.20 1019.21 1019.30 1019.26 1019.23 1019.18 1019.02 1018.83 1018.61 1018.37 1017.99 1017.47 1017.10 1016.75 1016.41 1016.30 1016.27 1016.16 1016.20 1016.03 1015.87 1015.71 1015.60 1015.75 1015.70 1016.00 1016.40 1016.33 1016.39 1016.59 1016.74 1016.91 1016.94 1016.95 1016.47 1016.01 1015.38 1015.19 1015.75 1016.10 1016.44 1016.48 1016.73
1019.10 1019.20 1019.27 1019.15 1019.21 1019.28 1019.26 1019.14 1019.03 1018.87 1018.64 1018.29 1017.93 1017.50 1016.93 1016.58 1016.27 1016.19 1016.14 1016.23 1016.16 1015.99 1016.00 1015.88 1015.69 1015.94 1016.11 1016.40 1016.64 1016.76 1016.82 1016.84 1016.86 1016.94 1017.00 1016.89 1016.45 1016.44 1014.80 1015.09 1015.43 1015.86 1015.81 1015.90 1016.12
1018.79 1019.08 1018.99 1018.94 1018.96 1019.13 1019.14 1019.04 1018.90 1018.78 1018.51 1018.24 1017.94 1017.56 1016.76 1016.14 1016.06 1016.10 1016.07 1016.29 1016.29 1016.10 1016.09 1016.25 1016.18 1015.98 1016.47 1016.80 1017.20 1017.14 1016.95 1016.76 1016.78 1017.00 1017.00 1017.03 1016.33 1015.21 1014.68 1015.36 1015.10 1015.14 1015.28 1015.45 1015.65
1018.65 1018.93 1018.83 1018.74 1018.79 1018.90 1018.93 1018.90 1018.82 1018.68 1018.46 1018.17 1017.94 1017.42 1016.44 1016.27 1016.12 1016.12 1016.19 1016.34 1016.43 1016.34 1016.50 1016.67 1016.52 1016.53 1016.87 1017.38 1017.32 1017.10 1017.06 1016.54 1016.62 1017.01 1017.17 1017.11 1014.79 1014.22 1014.71 1014.91 1014.42 1014.36 1014.29 1014.63 1014.90
1018.45 1018.64 1018.60 1018.54 1018.58 1018.69 1018.77 1018.64 1018.62 1018.52 1018.34 1018.07 1017.88 1017.33 1016.42 1016.37 1016.33 1016.31 1016.29 1016.09 1016.45 1016.72 1016.81 1016.93 1016.83 1017.17 1017.35 1016.85 1017.03 1017.10 1016.28 1016.57 1016.50 1016.93 1017.01 1016.78 1014.64 1014.15 1014.66 1014.73 1014.05 1013.76 1013.59 1013.64 1013.88
1018.09 1018.29 1018.36 1018.37 1018.37 1018.45 1018.48 1018.38 1018.31 1018.34 1018.16 1018.05 1017.84 1017.71 1016.68 1016.45 1016.50 1016.55 1016.51 1016.43 1016.42 1016.68 1016.76 1016.85 1017.10 1017.00 1017.10 1016.65 1015.98 1016.26 1016.53 1016.66 1016.54 1017.03 1017.19 1016.46 1014.84 1014.30 1014.31 1014.36 1013.65 1013.10 1012.83 1012.72 1012.82
1017.93 1018.05 1018.14 1018.13 1018.24 1018.27 1018.28 1018.24 1018.50 1018.41 1017.97 1017.12 1016.98 1016.64 1016.48 1016.79 1016.84 1016.81 1016.76 1016.58 1016.62 1016.62 1016.61 1017.29 1016.95 1016.25 1015.83 1016.28 1016.80 1016.74 1016.70 1016.48 1016.39 1017.17 1017.17 1015.98 1014.64 1013.62 1013.64 1013.48 1012.73 1012.08 1011.69 1011.49 1011.27
1017.80 1017.69 1017.87 1017.81 1018.03 1018.24 1018.32 1018.13 1017.73 1017.84 1017.42 1016.78 1016.99 1016.88 1016.67 1016.56 1016.84 1016.94 1016.99 1016.76 1016.72 1016.55 1017.09 1017.50 1016.57 1016.11 1016.86 1017.07 1017.23 1017.27 1017.01 1016.77 1016.62 1017.31 1017.26 1015.71 1014.36 1013.19 1012.83 1012.06 1011.55 1011.15 1010.54 1010.16 1010.08
1017.83 1017.64 1017.57 1017.68 1018.06 1018.34 1018.07 1017.76 1017.50 1017.72 1017.57 1016.79 1016.63 1016.45 1016.37 1016.59 1016.29 1016.44 1016.73 1016.83 1016.79 1016.93 1016.73 1016.31 1016.34 1016.46 1017.05 1017.51 1017.59 1017.24 1017.09 1017.04 1017.22 1017.32 1017.01 1016.04 1013.64 1012.28 1011.45 1011.26 1010.98 1010.46 1009.74 1009.36 1009.07
1018.10 1018.06 1017.93 1017.87 1018.37 1017.85 1017.83 1017.44 1017.55 1017.64 1017.43 1016.43 1016.27 1015.66 1016.02 1016.05 1016.39 1016.25 1016.31 1016.42 1017.12 1016.71 1017.14 1016.95 1016.80 1016.98 1017.26 1017.23 1017.59 1017.33 1017.09 1017.47 1017.68 1017.80 1016.54 1016.24 1012.90 1011.36 1010.72 1010.11 1010.02 1009.22 1008.64 1008.13 1008.62
1018.12 1018.42 1018.10 1017.66 1017.82 1017.87 1017.77 1017.54 1017.66 1017.59 1016.85 1015.10 1015.82 1015.84 1015.90 1015.71 1015.77 1016.68 1016.71 1016.45 1016.46 1016.68 1017.20 1016.49 1016.88 1017.14 1017.10 1016.74 1017.35 1017.40 1017.63 1017.91 1018.12 1017.80 1017.25 1015.24 1014.58 1010.45 1010.23 1009.37 1008.85 1007.90 1007.35 1007.76 1008.29
1018.44 1018.37 1017.80 1017.84 1018.06 1018.27 1017.76 1017.68 1017.87 1017.83 1015.52 1015.24 1015.46 1015.68 1015.99 1016.05 1016.35 1016.71 1016.70 1016.65 1016.86 1016.89 1017.08 1017.02 1017.32 1017.27 1016.95 1017.46 1017.60 1018.09 1018.24 1018.63 1018.62 1018.10 1016.35 1014.05 1013.81 1008.32 1009.10 1008.24 1007.74 1007.48 1007.17 1007.98 1008.49
1018.34 1018.27 1018.12 1018.44 1018.30 1018.28 1018.00 1018.00 1017.65 1015.78 1014.80 1015.19 1015.27 1015.50 1015.69 1016.01 1016.57 1016.47 1016.44 1016.26 1016.01 1016.75 1016.30 1017.09 1016.93 1017.00 1017.14 1017.55 1018.23 1017.87 1017.87 1018.11 1018.09 1017.61 1014.74 1013.87 1013.23 1007.99 1008.76 1008.20 1007.68 1007.11 1006.99 1008.15 1008.83
1018.51 1018.62 1018.38 1018.06 1018.37 1018.37 1018.23 1017.51 1016.89 1015.84 1015.29 1015.27 1015.24 1015.62 1015.76 1015.93 1016.26 1016.43 1016.40 1016.11 1015.86 1015.47 1015.22 1015.73 1016.15 1016.22 1016.23 1015.49 1016.12 1017.11 1016.57 1016.30 1015.85 1015.79 1014.41 1014.33 1011.27 1008.07 1008.16 1007.92 1007.75 1007.49 1007.36 1008.21 1008.86
1018.63 1018.61 1018.27 1017.85 1018.16 1018.31 1018.09 1017.40 1015.96 1015.34 1014.90 1014.97 1015.21 1015.43 1015.74 1016.00 1016.07 1016.24 1015.97 1015.26 1014.77 1014.93 1014.76 1015.04 1015.37 1015.61 1015.75 1015.51 1015.69 1016.84 1016.59 1015.64 1015.73 1016.41 1015.44 1011.91 1008.79 1007.92 1008.02 1007.56 1007.39 1007.42 1007.84 1007.97 1008.40
1018.64 1018.59 1018.05 1018.00 1017.98 1018.08 1018.25 1017.20 1016.50 1015.86 1015.29 1014.95 1014.84 1015.25 1015.39 1015.78 1016.06 1016.02 1015.66 1014.53 1014.65 1014.41 1014.28 1014.47 1015.26 1015.72 1016.13 1016.13 1015.98 1015.46 1015.29 1015.97 1015.92 1015.22 1013.92 1010.32 1009.18 1007.29 1007.46 1007.11 1006.92 1007.13 1007.46 1007.70 1008.31
1018.78 1018.50 1017.99 1018.02 1018.16 1018.26 1017.35 1016.42 1016.18 1015.51 1015.34 1015.40 1015.39 1015.28 1015.09 1015.31 1015.39 1015.59 1015.02 1014.77 1014.46 1014.44 1014.40 1014.41 1015.29 1016.08 1016.26 1015.56 1014.70 1015.71 1015.20 1015.04 1014.61 1014.18 1012.75 1010.62 1007.40 1006.55 1006.79 1007.00 1007.08 1007.24 1007.57 1007.88 1008.21
1018.95 1018.74 1018.05 1018.06 1018.13 1017.46 1016.46 1015.88 1015.55 1015.16 1015.40 1015.39 1015.78 1015.93 1015.63 1015.37 1015.45 1015.41 1015.04 1014.93 1014.98 1015.00 1015.08 1014.93 1014.97 1015.00 1015.00 1015.32 1015.19 1014.38 1013.55 1013.66 1013.34 1013.69 1013.17 1011.66 1006.70 1007.13 1007.55 1007.66 1007.67 1007.62 1007.90 1008.01 1008.48
1018.74 1018.50 1018.16 1018.08 1017.51 1017.09 1016.67 1016.04 1015.62 1015.20 1015.11 1015.08 1015.34 1015.44 1015.30 1015.90 1015.90 1015.81 1015.71 1016.07 1015.83 1015.91 1016.39 1015.80 1015.87 1016.02 1015.53 1015.87 1015.55 1014.69 1014.05 1013.38 1013.19 1013.58 1011.92 1011.07 1005.81 1007.52 1007.91 1007.80 1007.81 1007.88 1007.97 1008.36 1008.63
1018.85 1018.66 1018.46 1018.26 1017.54 1016.82 1016.51 1016.14 1015.85 1015.38 1015.13 1014.98 1015.06 1015.16 1015.40 1015.48 1015.98 1016.15 1016.17 1016.06 1016.50 1016.83 1017.20 1017.14 1016.57 1015.23 1013.54 1013.01 1012.94 1013.80 1013.28 1012.93 1012.73 1012.51 1009.36 1010.10 1005.57 1007.00 1007.86 1007.88 1007.67 1007.60 1007.88 1008.17 1008.46
1018.33 1017.84 1017.32 1017.59 1017.32 1017.04 1016.76 1016.27 1015.81 1015.62 1015.52 1015.31 1015.24 1015.10 1015.42 1015.64 1015.75 1015.59 1015.78 1016.04 1016.29 1016.21 1016.70 1017.91 1017.12 1016.19 1015.00 1014.33 1013.86 1013.18 1012.45 1012.14 1011.73 1009.93 1010.73 1006.71 1008.04 1005.00 1007.13 1007.45 1007.01 1006.56 1007.12 1007.74 1008.06
1017.47 1017.42 1017.57 1017.26 1016.74 1016.72 1016.64 1015.86 1015.76 1015.77 1015.68 1015.48 1015.40 1015.61 1015.71 1015.78 1015.94 1015.84 1016.11 1016.10 1015.95 1016.74 1016.63 1017.29 1017.18 1016.69 1015.62 1014.94 1013.93 1013.49 1012.79 1012.00 1010.99 1009.74 1009.64 1007.86 1007.48 1004.76 1006.42 1007.02 1007.17 1006.67 1006.56 1006.88 1007.32
1017.08 1017.37 1017.27 1016.75 1016.63 1016.52 1015.98 1015.83 1015.96 1016.46 1016.22 1016.14 1016.34 1016.30 1016.24 1016.18 1016.76 1017.02 1017.18 1016.95 1016.65 1016.58 1016.65 1017.00 1016.91 1016.61 1014.75 1014.33 1013.81 1012.85 1010.51 1011.10 1010.17 1009.42 1009.05 1008.11 1005.20 1005.48 1006.30 1006.49 1006.21 1005.95 1006.22 1006.70 1006.89
Wind_Speed
4 5 4 4 4 5 6 6 6 7 7 8 9 10 10 11 3 3 3 2 3 2 2 4 3 4 2 4 2 1 4 8 5 6 3 7 9 4 1 4 4 5 3 4 10
4 3 5 3 4 4 6 7 7 7 7 8 9 10 11 9 2 4 2 2 2 2 4 7 5 5 3 3 2 4 5 7 2 4 3 7 8 7 6 8 7 6 8 4 11
4 3 3 3 3 4 5 7 7 8 8 9 9 10 10 2 2 1 1 2 3 1 2 2 5 2 3 2 2 3 6 1 3 3 2 5 6 5 7 9 12 14 12 12 14
3 2 2 2 2 4 6 6 7 8 10 11 11 11 8 2 4 1 1 1 3 3 4 5 5 5 4 5 3 4 3 3 2 3 3 4 3 6 11 12 1 9 4 15 17
4 3 2 1 3 4 5 7 8 8 9 11 12 13 3 2 2 1 1 1 2 3 3 5 5 4 5 4 4 3 4 4 1 3 3 3 6 8 11 15 6 1 7 13 15
6 5 4 2 1 4 5 6 7 8 10 10 11 14 3 4 2 1 1 2 2 2 3 3 4 3 5 3 3 2 1 1 1 2 2 4 3 2 3 5 10 9 12 12 15
7 7 6 4 3 4 5 7 8 9 10 11 10 4 1 3 0 1 2 1 1 1 4 2 5 1 5 5 2 2 3 4 7 3 3 3 9 16 13 3 7 13 13 13 14
8 8 6 5 3 3 4 6 8 8 10 9 8 2 4 1 1 2 3 4 3 5 4 2 3 7 2 5 3 0 2 5 4 5 1 6 11 6 1 10 17 15 14 13 15
9 8 7 6 5 3 4 5 7 8 8 7 2 2 3 1 2 2 1 6 5 3 6 3 4 4 4 4 3 1 5 6 4 4 2 9 7 4 1 5 11 11 13 14 15
9 9 8 7 5 3 5 5 3 5 1 1 1 3 3 2 2 2 2 3 3 5 4 3 3 4 4 7 8 6 6 4 7 3 4 8 19 16 10 9 13 15 14 14 16
5 9 9 7 4 1 3 1 2 1 2 5 2 1 2 2 0 1 0 4 3 3 8 2 7 11 16 11 1 2 3 6 6 3 4 12 20 21 16 15 20 20 20 20 21
4 5 5 6 4 2 1 2 2 3 4 7 2 4 2 3 3 3 4 9 6 10 7 5 12 15 4 8 7 6 10 13 12 3 6 13 21 21 19 22 20 21 22 23 21
12 10 5 2 7 3 3 4 3 2 3 4 5 6 5 7 5 11 12 5 4 9 15 14 4 7 8 6 11 11 14 11 10 3 8 12 16 16 10 13 17 22 24 24 24
10 11 9 7 3 4 3 2 4 2 4 5 7 6 6 8 5 1 9 4 4 13 7 11 5 6 7 8 13 15 13 10 8 5 9 2 11 18 14 17 13 18 18 22 18
8 8 11 4 1 3 1 3 4 2 6 4 4 2 1 8 8 4 0 2 9 9 8 6 10 12 12 9 14 3 6 7 3 6 7 11 9 8 2 8 15 19 18 14 13
6 7 7 2 1 5 1 4 2 5 13 5 5 5 7 2 2 4 5 3 2 5 2 1 1 5 3 4 6 13 7 4 2 1 11 9 10 10 7 10 7 8 11 2 4
7 8 3 2 1 5 4 3 2 7 5 6 4 6 6 7 3 4 12 13 12 9 14 4 8 3 3 7 4 4 8 4 5 6 12 6 10 19 15 13 13 14 12 1 1
6 6 2 2 5 1 1 4 6 7 6 3 4 5 8 8 5 5 8 10 13 4 2 13 11 14 12 14 10 13 10 7 7 6 8 4 12 7 13 13 17 16 16 9 9
2 2 3 1 4 4 3 5 4 5 4 7 4 5 7 4 4 6 10 10 10 15 13 7 10 1 2 5 12 8 12 9 6 3 5 11 20 14 11 15 12 15 10 10 8
1 1 2 1 4 2 3 5 4 2 2 2 12 10 9 8 9 11 10 5 9 14 15 5 8 2 2 3 1 9 11 5 5 6 9 11 12 13 6 11 14 13 11 10 8
0 1 1 2 2 2 6 7 7 8 5 1 1 4 7 8 11 8 5 2 7 7 17 12 7 4 4 11 16 9 11 3 3 5 5 7 12 4 7 6 10 5 4 4 5
2 3 1 5 4 3 8 6 6 9 7 6 4 2 3 6 7 8 10 7 3 7 10 8 5 13 16 2 3 8 16 20 8 6 6 5 19 6 3 2 4 2 1 0 2
4 2 1 3 6 7 2 2 6 7 10 8 11 14 8 4 3 3 2 4 3 2 5 3 5 4 3 2 2 8 9 13 16 3 15 9 23 4 2 2 1 3 2 3 2
3 3 2 1 0 4 8 7 8 2 7 5 3 9 6 8 9 6 7 4 5 4 7 5 6 10 13 2 6 10 16 18 18 11 22 16 34 19 4 6 4 4 4 5 7
4 5 3 6 8 9 7 2 12 9 5 6 6 16 11 8 11 16 12 6 6 8 9 4 4 5 18 15 4 3 13 22 25 30 18 32 22 26 19 14 17 15 13 10 11
4 4 2 1 2 14 13 10 8 8 6 6 15 3 7 15 15 9 7 9 12 4 8 10 4 2 8 14 14 13 11 15 23 26 23 30 29 27 17 10 9 15 15 15 15
4 2 2 6 7 7 8 14 9 10 7 10 3 3 7 6 3 5 5 8 13 14 8 8 4 3 20 12 13 12 30 23 20 20 21 24 32 22 18 17 22 22 20 16 18
Wind_Direction
129 113 85 62 41 22 21 25 25 23 13 355 347 337 328 333 321 172 211 94 152 147 174 144 134 107 113 98 75 236 218 230 222 186 201 150 195 154 21 209 211 200 263 72 142
135 116 103 56 35 23 11 10 8 7 2 349 338 333 326 340 248 224 97 147 155 206 186 182 154 144 117 102 95 224 232 230 188 197 208 178 211 178 197 199 216 219 202 157 169
154 137 103 81 27 8 8 2 358 354 348 338 332 324 325 350 250 172 7 175 144 154 140 132 115 147 146 164 147 148 244 234 201 207 217 187 214 196 215 221 226 219 195 180 184
177 166 122 64 22 8 352 350 355 351 345 336 332 324 325 163 229 110 260 172 157 147 146 133 151 155 175 182 152 212 198 200 132 172 178 198 146 222 219 234 318 229 185 180 192
193 197 174 35 345 345 348 343 343 344 342 336 329 327 249 201 249 36 296 129 155 147 159 156 169 155 190 157 157 230 177 189 180 178 216 159 222 246 242 243 227 237 197 204 207
213 209 212 200 289 319 325 329 332 333 331 332 333 320 212 230 127 37 68 108 97 146 129 165 175 143 107 133 223 65 210 267 238 229 247 248 248 274 238 276 223 227 231 223 218
220 231 220 231 244 278 307 314 319 324 325 325 334 331 243 252 99 115 115 80 33 119 126 72 133 129 138 133 84 66 255 261 215 201 226 226 238 235 245 218 241 233 236 234 229
223 225 221 205 222 261 290 306 307 312 314 314 318 288 264 18 50 138 140 95 72 52 78 67 106 96 30 121 74 177 250 246 136 181 162 222 256 247 183 231 251 247 245 238 235
222 222 220 216 211 246 284 299 296 300 300 306 249 280 251 111 162 127 244 141 107 76 71 84 64 73 154 167 195 205 250 231 287 196 170 221 274 270 232 242 264 262 254 248 248
221 223 219 221 220 254 296 292 306 300 183 227 72 257 161 186 112 123 43 124 123 129 116 66 81 168 162 198 229 211 223 221 251 138 219 240 260 261 257 260 266 269 264 253 246
268 216 211 208 215 213 348 128 176 204 231 217 202 304 126 92 140 74 334 120 116 146 181 84 210 208 223 218 202 122 221 260 260 168 254 254 267 272 271 264 263 262 258 255 250
291 244 213 196 182 147 123 232 255 45 273 225 232 282 243 184 129 193 178 184 183 192 141 167 226 226 101 176 200 222 259 260 280 223 224 271 268 276 268 257 255 261 261 257 256
38 16 242 259 160 161 217 232 135 183 257 251 191 205 200 171 207 185 178 152 180 172 196 214 179 178 177 175 199 227 235 248 263 306 226 291 265 250 263 259 260 258 256 261 255
39 20 13 159 152 146 224 225 177 206 260 230 206 224 159 155 235 110 183 154 181 211 192 240 183 165 176 209 205 239 212 237 254 280 276 248 288 281 268 265 255 258 247 250 260
57 21 354 208 40 180 18 166 158 227 257 136 159 82 140 195 129 191 78 129 184 172 179 199 183 195 209 219 185 230 143 180 184 235 314 229 263 242 168 258 251 258 260 267 266
20 8 4 17 271 2 344 96 167 162 226 163 131 153 149 173 69 106 162 71 76 139 232 305 4 200 211 90 173 139 102 78 90 223 260 239 223 271 201 232 253 252 265 275 266
357 348 4 127 107 348 332 155 290 221 146 175 170 169 174 166 142 166 177 183 181 188 220 173 209 185 171 111 83 198 160 213 229 198 253 92 212 253 286 249 249 265 268 179 237
325 333 321 232 168 33 350 174 208 171 222 100 122 115 187 156 188 155 158 201 233 238 174 207 230 184 186 216 176 195 200 203 223 226 278 107 238 259 243 271 246 266 278 281 267
333 304 303 234 196 195 82 239 202 178 147 149 99 173 189 189 193 176 207 229 214 196 209 188 241 222 239 200 186 169 213 254 271 115 276 253 264 256 233 250 251 245 249 268 253
39 302 250 224 188 202 182 224 265 261 316 184 197 203 202 185 188 197 177 208 226 202 223 206 260 161 105 180 192 212 143 167 213 222 239 255 264 254 235 239 247 254 250 251 234
78 283 161 243 176 205 214 220 194 195 167 98 344 233 229 180 197 192 211 211 214 197 195 215 230 130 140 210 189 176 209 210 230 225 242 273 258 173 235 280 268 280 274 288 251
144 220 47 182 173 211 219 180 190 189 200 186 175 220 308 207 191 214 222 250 61 142 185 200 238 235 219 99 307 242 223 203 204 193 241 281 265 143 85 14 302 219 269 288 222
176 270 22 241 207 206 221 233 220 166 186 189 211 212 188 145 266 340 3 25 100 260 43 210 207 231 232 205 186 223 202 219 231 33 235 225 260 74 129 240 314 227 272 294 138
162 209 252 249 96 218 213 222 223 205 235 224 230 189 194 220 188 216 225 235 136 144 30 357 209 220 230 222 147 204 211 206 198 215 240 230 260 251 213 218 216 261 277 271 224
189 221 201 192 223 218 196 232 207 214 225 206 239 236 234 243 237 239 246 205 203 188 147 165 269 276 274 294 289 247 219 208 210 228 227 251 252 260 251 236 268 286 275 249 256
185 187 191 189 181 193 208 219 206 184 186 208 239 181 222 240 246 273 283 266 250 184 180 175 239 335 300 276 240 254 259 241 223 232 235 250 254 257 256 259 258 252 259 274 280
169 136 247 182 192 188 202 220 229 224 264 255 248 174 227 258 44 334 280 296 288 282 239 188 198 202 268 254 235 243 235 233 235 234 232 243 248 267 267 254 253 260 262 266 264